Reflectivity
-20 -20 -20 -20 -20 -20 -20 -20 -20 -20 -20 -20 -20 -20 -20 -20 -20 -20 -20 -20 -20 -20 -20 -20 -20 -20 -20 -20 -20 -19 -20 -18 -20 -19 -20 -20 -20 -20
-20 -20 -20 -20 -20 -20 -20 -20 -20 -20 -20 -20 -20 -20 -20 -20 -20 -20 -20 -20 -20 -20 -20 -20 -20 -20 -20 -20 -20 -20 3 -20 -8 -20 -10 -20 -20 -20
-20 -20 -20 -20 -20 -20 -20 -20 -20 -20 -20 -20 -20 -20 -20 -20 -20 -20 -20 -20 -20 -20 -20 -20 -20 -20 -20 -16 -20 -20 -20 2 -5 -0 -20 0 -20 -20
-20 -20 -20 -20 -20 -20 -20 -20 -20 -20 -20 -20 -20 -20 -20 -20 -20 -20 -20 -20 -20 -20 -20 -20 -20 -20 -20 -20 -20 -19 4 12 -18 -20 -20 -20 -20 -20
-20 -20 -20 -20 -20 -20 -20 -20 -20 -20 -20 -20 -20 -20 -20 -20 -20 -20 -20 -20 -20 -20 -20 -20 -20 -20 -20 -20 -15 -20 -20 -1 6 -20 -20 -20 -20 -20
-20 -20 -20 -20 -20 -20 -20 -20 -20 -20 -20 -20 -20 -15 -17 -20 -7 -15 -20 -20 -20 -20 -20 -20 -20 -20 -20 -20 -20 -20 -20 -20 -20 -20 -20 -20 -20 -20
-20 -20 -20 -20 -20 -20 -20 -20 -20 -20 -13 3 -20 -20 -20 -20 -20 -20 -20 -20 -20 -20 -20 -20 -20 -20 -20 -20 -20 -20 -20 -20 -20 -20 -20 -20 -20 -20
-20 -20 -20 -20 -20 -20 -20 -20 1 2 8 -0 7 -20 -20 -3 -20 -19 -18 -20 -13 -9 -20 -20 -20 -20 -20 -20 -20 -20 -20 -20 -20 -20 -20 -20 -20 -20
-20 -20 -20 -20 -20 -20 -20 -20 -20 -5 14 -1 -20 -20 2 0 -10 9 7 11 5 -7 -0 -0 -20 -20 -20 -20 -20 -20 -20 -11 -7 -20 -20 -20 -20 -8
-20 -20 -20 -20 -20 -18 -20 5 -11 -13 -20 -20 -11 -20 -2 4 -19 -18 1 3 7 1 12 -7 -20 -20 -20 -20 -20 -20 -20 -20 -20 -20 -20 -20 -20 6
-20 -20 -20 -20 -20 -8 9 -20 -20 -20 -20 -20 2 -4 -18 -20 -20 -1 -2 9 2 -8 -20 -20 -20 -20 -20 -20 -20 -20 -20 -20 -4 -20 -20 -20 6 10
-20 -20 -20 -20 5 10 -17 -19 -20 -20 -15 -17 -20 -20 -20 -20 -20 -20 -0 6 8 -4 -20 5 7 8 -17 -20 -20 -20 -20 -20 -20 -20 -20 23 23 -2
-20 -20 -20 -20 7 -0 2 -20 -19 3 -18 -20 -20 -20 -16 -20 -20 -20 -20 -13 -13 0 -20 15 12 -15 -1 -0 -20 -20 -20 -20 -20 -20 -20 -20 11 -15
-20 -20 -20 5 0 -19 -20 -10 -16 -10 -20 -20 -4 -20 -20 -20 -20 -11 -20 -20 -18 -3 -19 6 11 9 -1 1 -4 -20 -20 -20 -20 -20 -20 -20 -20 -20
-20 -16 1 -18 -20 -20 -20 -18 -18 -20 -20 -5 -6 -20 -20 -20 -19 -20 -20 -18 -20 -20 -20 -20 -17 -20 3 7 -5 -20 0 -19 -20 -20 -20 -20 -20 -20
-20 -20 -20 -20 -20 -20 -20 -20 -20 -20 -7 3 -9 -19 -20 -20 -7 -20 -6 -3 -1 -19 -20 -20 -12 9 4 -5 6 -20 -20 -12 -20 -20 -20 -20 -20 -20
-19 -20 -20 -20 -20 -20 -20 -20 -20 -20 -20 -13 -20 -20 -20 -3 -20 -20 -20 1 -6 -20 -20 -20 -20 -10 -20 5 -15 -20 -20 -20 -20 -20 -20 -20 -20 -20
-20 -20 -20 -20 -20 -20 -11 -20 -20 -17 -4 0 -2 -20 -20 -20 -20 -20 -1 -20 -20 -20 -20 -20 -20 -20 -20 -20 -20 -20 -20 -20 -20 -20 -20 -20 -20 -20
-20 -20 -20 -20 1 -3 -2 -3 -19 -2 -20 -4 -19 -20 -20 -20 -19 -20 -20 -20 -20 -20 -20 -20 -20 -20 -17 -20 -20 -20 -20 -20 -20 -20 -20 -20 -20 -20
-20 -1 0 -7 -8 -6 -2 1 0 -1 -6 -20 -15 -20 -20 -20 -20 -20 -20 -20 -18 -17 -20 -9 -19 -20 -9 -20 -19 -19 -20 -20 -20 -20 -20 -20 -20 -20
-20 -20 -20 -19 -20 -20 -20 -13 -11 -18 -16 -19 -20 -20 -20 -20 -20 -20 -20 -20 -0 -20 -20 -20 -20 -1 5 6 5 -20 -20 -20 -20 -17 -20 -20 -20 -20
-20 -20 -20 -20 -20 -20 -20 -20 -20 -20 -20 -20 -20 -20 -20 -20 -20 -6 -20 -20 -20 -20 -20 -20 -20 -20 -20 -15 -20 -20 -20 -20 -20 -20 -17 -19 -19 -20
-20 -20 -20 -20 -20 -20 -20 -20 -20 -20 -20 -20 -20 -20 -20 -19 -20 -20 -20 -20 -20 -20 -20 -20 -20 -20 -20 -20 -15 -14 -20 -20 -20 -20 -20 -20 -20 -3
Wind_Speed
1 0 1 2 1 2 2 2 2 6 8 3 3 5 5 8 11 12 10 18 24 24 23 22 22 23 23 23 24 24 20 21 20 21 20 22 20 22
1 2 1 2 3 2 2 2 3 4 6 2 6 8 7 8 12 12 11 21 22 24 23 23 23 23 23 23 24 24 23 22 19 21 21 21 21 22
2 2 4 3 3 3 3 3 4 3 9 8 7 8 6 8 10 9 9 9 9 20 23 23 24 23 23 24 24 24 25 24 19 20 22 21 22 22
4 4 5 4 5 4 3 5 5 6 6 13 10 9 9 8 9 10 9 9 9 16 22 23 24 23 23 23 23 24 24 21 21 20 20 20 22 22
4 4 5 4 5 4 4 5 5 6 6 8 11 8 8 7 9 8 8 10 9 19 21 22 22 23 22 22 22 22 23 24 22 19 21 22 21 21
4 4 5 5 5 6 6 6 5 5 7 7 9 9 8 8 8 9 10 7 9 9 15 19 22 21 20 20 21 20 21 21 22 20 21 21 22 22
5 4 4 7 14 12 7 6 7 7 8 8 9 9 9 8 9 9 10 11 9 7 10 9 8 7 8 16 17 20 20 20 20 21 21 21 22 21
4 5 5 9 9 15 17 18 15 11 11 9 8 11 11 11 12 11 12 11 10 4 6 7 4 9 8 7 17 21 22 22 22 21 21 22 21 21
5 5 5 5 11 7 14 18 17 20 19 13 12 10 12 13 13 13 12 11 11 8 10 11 7 10 9 9 21 22 22 22 22 22 23 22 21 21
5 6 5 7 7 12 10 8 7 8 9 7 9 11 11 11 12 11 14 14 11 9 6 13 7 7 8 7 20 22 22 21 21 21 22 21 21 19
5 6 6 6 13 20 11 8 6 7 11 18 18 20 23 21 18 10 9 11 10 7 3 7 9 7 6 8 9 20 18 17 15 19 21 20 19 13
5 5 11 13 19 19 11 8 8 11 9 7 9 10 13 12 19 9 8 10 11 9 3 3 4 4 6 3 3 4 4 14 17 16 18 13 8 2
4 4 4 17 18 19 19 5 10 13 9 8 7 8 9 7 9 9 10 10 10 11 11 10 4 4 6 8 6 4 4 7 5 6 12 11 7 8
5 4 6 16 18 18 13 18 19 15 7 7 8 8 8 9 9 10 10 11 10 14 14 13 8 8 9 10 10 4 3 4 4 4 3 9 12 13
5 11 16 16 17 11 15 17 14 6 7 7 8 8 8 10 12 10 11 11 11 11 11 13 10 10 9 9 9 9 9 3 4 5 3 4 3 2
8 5 11 12 12 11 9 8 5 6 8 7 9 9 8 8 9 8 9 10 9 10 11 10 11 9 8 8 8 9 7 6 3 4 3 3 3 4
7 3 4 5 6 6 7 6 6 6 8 8 8 10 10 10 10 10 9 10 10 11 10 10 9 8 8 11 9 9 9 8 5 5 2 6 4 4
4 4 5 6 6 7 8 8 8 10 8 9 9 10 10 10 11 10 10 10 11 11 10 9 9 9 6 6 15 10 7 6 5 6 3 7 8 4
3 4 6 7 7 7 7 8 9 8 10 8 10 9 9 10 15 11 10 10 10 11 11 9 8 7 8 9 4 17 7 3 3 2 3 5 8 6
5 6 7 7 8 8 8 8 8 8 9 9 9 10 10 10 11 11 10 12 11 10 10 8 7 7 8 8 6 6 12 7 4 5 3 2 6 12
7 7 7 7 8 8 8 8 9 9 10 10 10 10 10 10 12 9 11 20 20 10 11 10 9 18 7 6 5 5 4 10 10 5 3 2 3 2
6 7 7 7 8 8 8 8 8 10 9 9 10 10 10 9 11 10 10 11 11 10 11 10 10 7 4 7 9 8 7 5 8 15 15 14 4 4
7 7 7 8 7 7 8 7 9 9 10 10 10 11 11 10 9 9 10 11 11 10 11 10 9 6 7 7 11 7 5 4 2 2 4 11 15 21
Wind_Direction
343 93 257 281 260 250 237 205 249 308 309 284 304 301 310 303 301 309 305 307 314 315 314 313 312 310 307 301 297 294 290 293 293 295 292 292 301 304
310 339 293 267 288 275 273 268 235 262 284 255 290 291 283 290 291 300 297 303 306 309 310 311 310 307 306 302 298 293 291 288 289 294 294 298 298 302
347 306 301 282 286 296 291 273 265 251 284 295 289 291 281 279 287 283 285 288 289 298 303 307 309 307 307 304 299 291 285 285 283 291 294 295 297 298
318 318 301 317 304 290 281 280 270 273 280 294 297 298 287 283 276 284 288 287 287 290 297 300 303 305 307 307 303 301 298 296 287 288 293 295 290 293
302 306 304 314 299 293 281 270 266 275 275 283 293 292 289 282 283 271 268 278 282 288 292 297 299 301 298 303 301 304 296 292 289 289 288 284 283 286
314 315 306 299 289 288 285 271 281 286 289 284 293 302 303 298 291 298 297 283 288 285 289 288 288 290 295 301 300 298 296 289 286 285 284 282 281 280
334 325 302 303 315 313 310 309 295 289 285 288 295 296 304 307 300 300 291 295 290 276 275 274 272 270 272 289 287 290 293 287 284 284 283 281 278 278
320 308 298 312 304 316 314 307 302 302 297 294 297 307 310 308 305 303 298 293 295 245 277 277 279 280 274 271 280 288 290 288 283 286 283 279 276 276
300 295 303 306 316 295 298 298 293 294 302 307 299 294 295 303 299 302 300 293 283 285 285 283 274 269 270 272 282 289 288 287 285 285 283 279 275 272
289 290 286 291 292 303 292 291 276 282 275 279 285 288 285 301 304 303 299 293 285 282 255 282 288 266 278 273 282 286 283 283 285 288 285 279 272 272
289 291 291 286 302 307 317 298 293 289 299 306 306 310 309 313 314 311 310 310 304 293 246 270 280 283 275 277 274 279 289 292 292 302 301 278 267 259
286 287 307 318 313 315 324 317 316 307 308 315 305 307 313 302 315 317 312 308 309 304 276 252 266 264 285 241 272 282 291 291 294 299 308 299 256 279
313 314 299 311 317 326 322 337 298 318 338 319 314 315 311 301 311 313 306 301 298 290 296 302 293 273 264 287 282 264 264 279 282 291 296 295 277 272
323 297 282 312 323 323 328 315 328 339 317 317 313 320 316 314 310 305 294 295 284 283 291 284 279 282 278 279 281 276 264 278 268 273 273 273 274 272
311 315 332 324 324 326 318 330 336 319 318 311 314 306 310 304 300 300 295 288 286 283 285 284 266 273 263 269 278 282 287 250 271 275 279 258 252 241
319 330 336 337 336 330 328 318 314 327 320 317 311 309 303 306 307 310 306 306 299 293 295 289 273 258 276 264 266 272 261 258 241 260 251 255 253 235
359 334 327 331 332 331 328 326 328 322 323 315 315 313 310 309 312 310 301 306 301 300 298 301 287 252 267 275 270 270 269 251 240 249 228 272 251 245
354 326 320 320 322 330 332 329 325 321 319 319 315 312 307 310 310 307 308 303 299 296 296 294 298 304 293 266 236 259 254 246 244 243 219 255 271 238
321 314 324 329 327 329 320 317 315 316 318 311 305 299 304 305 310 303 305 303 299 295 288 283 278 274 282 279 273 223 242 237 236 235 202 224 262 264
339 334 328 324 322 314 313 314 314 313 311 304 306 305 298 301 300 297 306 304 297 295 299 296 281 257 264 274 272 270 239 244 225 254 246 244 244 261
342 331 324 316 308 308 307 308 309 307 305 309 302 300 295 298 297 289 300 309 309 304 298 297 292 285 270 271 259 278 267 245 237 217 223 209 248 276
321 312 308 306 304 303 300 296 299 303 303 299 298 297 293 290 293 300 304 302 299 297 293 293 297 282 265 265 269 270 271 256 238 255 246 228 220 257
309 306 303 301 298 295 294 294 292 295 296 296 293 294 295 296 290 299 299 297 295 297 297 298 303 286 264 261 265 268 253 265 237 271 268 259 260 251